| time (UTC) | temp F | wind direction | speed MPH | gust MPH | rain 1hr in | rain 24hr in | rain mn in | humidity % | barometer mb |
| 20260505191511 | 55 | 145 | 4.0 | 4.0 | 0.00 | 0.00 | 0.00 | 24 | 1010.1 |
| 20260505191008 | 55 | 182 | 7.0 | 9.0 | 0.00 | 0.00 | 0.00 | 23 | 1010.5 |
| 20260505190503 | 55 | 156 | 3.0 | 8.0 | 0.00 | 0.00 | 0.00 | 25 | 1010.1 |
| 20260505185958 | 54 | 164 | 6.0 | 8.0 | 0.00 | 0.00 | 0.00 | 24 | 1010.5 |
| 20260505185456 | 54 | 161 | 4.0 | 6.0 | 0.00 | 0.00 | 0.00 | 27 | 1010.8 |
| 20260505184952 | 54 | 196 | 5.0 | 6.0 | 0.00 | 0.00 | 0.00 | 27 | 1010.5 |
| 20260505184449 | 53 | 239 | 3.0 | 3.0 | 0.00 | 0.00 | 0.00 | 26 | 1010.8 |
| 20260505183945 | 53 | 192 | 6.0 | 7.0 | 0.00 | 0.00 | 0.00 | 26 | 1010.8 |
| 20260505183443 | 53 | 192 | 8.0 | 10.0 | 0.00 | 0.00 | 0.00 | 25 | 1010.8 |
| 20260505182939 | 53 | 282 | 4.0 | 7.0 | 0.00 | 0.00 | 0.00 | 30 | 1010.8 |
| 20260505182436 | 53 | 193 | 4.0 | 6.0 | 0.00 | 0.00 | 0.00 | 28 | 1010.5 |
| 20260505181932 | 53 | 176 | 3.0 | 4.0 | 0.00 | 0.00 | 0.00 | 28 | 1010.5 |
| 20260505181430 | 53 | 212 | 3.0 | 6.0 | 0.00 | 0.00 | 0.00 | 29 | 1010.8 |
| 20260505180927 | 53 | 87 | 2.0 | 3.0 | 0.00 | 0.00 | 0.00 | 29 | 1010.8 |
| 20260505180423 | 53 | 202 | 6.0 | 8.0 | 0.00 | 0.00 | 0.00 | 28 | 1010.5 |
| 20260505175920 | 53 | 194 | 3.0 | 3.0 | 0.00 | 0.00 | 0.00 | 29 | 1010.8 |
| 20260505175416 | 53 | 171 | 3.0 | 3.0 | 0.00 | 0.00 | 0.00 | 27 | 1010.8 |
| 20260505174912 | 53 | 151 | 5.0 | 7.0 | 0.00 | 0.00 | 0.00 | 28 | 1010.5 |
| 20260505174410 | 53 | 238 | 5.0 | 7.0 | 0.00 | 0.00 | 0.00 | 27 | 1010.8 |
| 20260505173906 | 53 | 163 | 6.0 | 8.0 | 0.00 | 0.00 | 0.00 | 28 | 1010.5 |
| 20260505173402 | 53 | 190 | 3.0 | 4.0 | 0.00 | 0.00 | 0.00 | 28 | 1010.8 |
| 20260505172900 | 53 | 250 | 5.0 | 7.0 | 0.00 | 0.00 | 0.00 | 27 | 1010.8 |
| 20260505172357 | 53 | 194 | 7.0 | 10.0 | 0.00 | 0.00 | 0.00 | 26 | 1010.5 |
| 20260505171857 | 53 | 160 | 2.0 | 2.0 | 0.00 | 0.00 | 0.00 | 27 | 1010.8 |
| 20260505171354 | 53 | 104 | 3.0 | 4.0 | 0.00 | 0.00 | 0.00 | 28 | 1010.8 |
| 20260505170850 | 53 | 258 | 5.0 | 8.0 | 0.00 | 0.00 | 0.00 | 26 | 1010.8 |
| 20260505170348 | 53 | 196 | 3.0 | 4.0 | 0.00 | 0.00 | 0.00 | 28 | 1010.5 |
| 20260505165842 | 53 | 204 | 2.0 | 3.0 | 0.00 | 0.00 | 0.00 | 28 | 1010.8 |
| 20260505165338 | 54 | 276 | 2.0 | 3.0 | 0.00 | 0.00 | 0.00 | 28 | 1010.8 |
| 20260505164834 | 54 | 146 | 5.0 | 6.0 | 0.00 | 0.00 | 0.00 | 27 | 1011.1 |
| 20260505164331 | 54 | 184 | 3.0 | 4.0 | 0.00 | 0.00 | 0.00 | 26 | 1010.8 |
| 20260505163830 | 54 | 184 | 3.0 | 4.0 | 0.00 | 0.00 | 0.00 | 26 | 1010.8 |
| 20260505163328 | 54 | 184 | 4.0 | 4.0 | 0.00 | 0.00 | 0.00 | 26 | 1011.1 |
| 20260505162826 | 54 | 298 | 4.0 | 4.0 | 0.00 | 0.00 | 0.00 | 22 | 1010.8 |
| 20260505162322 | 54 | 149 | 3.0 | 3.0 | 0.00 | 0.00 | 0.00 | 26 | 1010.8 |
| 20260505161819 | 53 | 66 | 4.0 | 6.0 | 0.00 | 0.00 | 0.00 | 25 | 1010.8 |
| 20260505161316 | 53 | 171 | 4.0 | 4.0 | 0.00 | 0.00 | 0.00 | 24 | 1010.8 |
| 20260505160814 | 53 | 265 | 2.0 | 3.0 | 0.00 | 0.00 | 0.00 | 25 | 1011.1 |
| 20260505160312 | 53 | 232 | 4.0 | 6.0 | 0.00 | 0.00 | 0.00 | 24 | 1011.1 |
| 20260505153250 | 53 | 196 | 5.0 | 7.0 | 0.00 | 0.00 | 0.00 | 23 | 1010.8 |
| 20260505152747 | 53 | 213 | 4.0 | 4.0 | 0.00 | 0.00 | 0.00 | 24 | 1010.8 |
| 20260505152243 | 52 | 256 | 4.0 | 6.0 | 0.00 | 0.00 | 0.00 | 25 | 1011.1 |
| 20260505151738 | 52 | 188 | 4.0 | 6.0 | 0.00 | 0.00 | 0.00 | 29 | 1011.1 |
| 20260505151236 | 52 | 278 | 2.0 | 2.0 | 0.00 | 0.00 | 0.00 | 27 | 1011.1 |
| 20260505150732 | 52 | 171 | 3.0 | 3.0 | 0.00 | 0.00 | 0.00 | 26 | 1011.1 |
| 20260505150229 | 52 | 220 | 3.0 | 4.0 | 0.00 | 0.00 | 0.00 | 26 | 1010.8 |
| 20260505140154 | 48 | 188 | 4.0 | 4.0 | 0.00 | 0.00 | 0.00 | 40 | 1011.1 |
| 20260505130118 | 43 | 195 | 3.0 | 4.0 | 0.00 | 0.00 | 0.00 | 47 | 1011.8 |
| 20260505124607 | 42 | 175 | 0.0 | 0.0 | 0.00 | 0.00 | 0.00 | 50 | 1011.5 |
| 20260505124103 | 41 | 190 | 2.0 | 3.0 | 0.00 | 0.00 | 0.00 | 52 | 1011.5 |
| 20260505123600 | 41 | 226 | 1.0 | 1.0 | 0.00 | 0.00 | 0.00 | 52 | 1011.1 |
| 20260505123056 | 41 | 206 | 1.0 | 1.0 | 0.00 | 0.00 | 0.00 | 51 | 1011.1 |
| 20260505122553 | 40 | 151 | 0.0 | 1.0 | 0.00 | 0.00 | 0.00 | 52 | 1011.1 |
| 20260505122050 | 40 | 231 | 0.0 | 1.0 | 0.00 | 0.00 | 0.00 | 52 | 1011.1 |
| 20260505121547 | 40 | 170 | 1.0 | 1.0 | 0.00 | 0.00 | 0.00 | 52 | 1011.1 |
| 20260505121044 | 40 | 172 | 1.0 | 2.0 | 0.00 | 0.00 | 0.00 | 53 | 1010.8 |
| 20260505120540 | 39 | 183 | 1.0 | 1.0 | 0.00 | 0.00 | 0.00 | 53 | 1010.8 |
| 20260505120036 | 39 | 187 | 1.0 | 1.0 | 0.00 | 0.00 | 0.00 | 54 | 1010.8 |
| 20260505115530 | 39 | 180 | 0.0 | 1.0 | 0.00 | 0.00 | 0.00 | 57 | 1010.8 |
| 20260505115028 | 39 | 163 | 0.0 | 0.0 | 0.00 | 0.00 | 0.00 | 58 | 1010.5 |
| 20260505114525 | 39 | 163 | 0.0 | 0.0 | 0.00 | 0.00 | 0.00 | 58 | 1010.5 |
| 20260505114021 | 38 | 164 | 0.0 | 0.0 | 0.00 | 0.00 | 0.00 | 57 | 1010.1 |
| 20260505113518 | 38 | 164 | 0.0 | 0.0 | 0.00 | 0.00 | 0.00 | 55 | 1010.1 |
| 20260505113014 | 38 | 213 | 0.0 | 1.0 | 0.00 | 0.00 | 0.00 | 55 | 1010.1 |
| 20260505112511 | 38 | 214 | 0.0 | 0.0 | 0.00 | 0.00 | 0.00 | 55 | 1009.8 |
| 20260505112009 | 38 | 214 | 0.0 | 0.0 | 0.00 | 0.00 | 0.00 | 54 | 1010.1 |
| 20260505111502 | 38 | 214 | 0.0 | 1.0 | 0.00 | 0.00 | 0.00 | 54 | 1009.8 |
| 20260505110959 | 38 | 214 | 1.0 | 1.0 | 0.00 | 0.00 | 0.00 | 54 | 1009.8 |
| 20260505110455 | 39 | 212 | 0.0 | 0.0 | 0.00 | 0.00 | 0.00 | 54 | 1009.8 |
| 20260505101927 | 40 | 198 | 0.0 | 0.0 | 0.00 | 0.00 | 0.00 | 52 | 1009.0 |
| 20260505101421 | 41 | 197 | 0.0 | 0.0 | 0.00 | 0.00 | 0.00 | 51 | 1009.0 |
| 20260505100917 | 41 | 190 | 0.0 | 0.0 | 0.00 | 0.00 | 0.00 | 51 | 1009.0 |
| 20260505100414 | 41 | 210 | 1.0 | 1.0 | 0.00 | 0.00 | 0.00 | 51 | 1008.7 |
| 20260505095909 | 41 | 178 | 0.0 | 0.0 | 0.00 | 0.00 | 0.00 | 51 | 1008.7 |
| 20260505095407 | 41 | 205 | 1.0 | 1.0 | 0.00 | 0.00 | 0.00 | 51 | 1008.7 |
| 20260505094903 | 41 | 186 | 0.0 | 1.0 | 0.00 | 0.00 | 0.00 | 51 | 1008.7 |
| 20260505094400 | 42 | 178 | 1.0 | 2.0 | 0.00 | 0.00 | 0.00 | 51 | 1008.3 |
| 20260505093855 | 42 | 183 | 0.0 | 1.0 | 0.00 | 0.00 | 0.00 | 50 | 1008.7 |
| 20260505093353 | 42 | 186 | 1.0 | 2.0 | 0.00 | 0.00 | 0.00 | 50 | 1008.3 |
| 20260505092850 | 42 | 188 | 2.0 | 2.0 | 0.00 | 0.00 | 0.00 | 50 | 1008.3 |
| 20260505092348 | 42 | 192 | 1.0 | 2.0 | 0.00 | 0.00 | 0.00 | 50 | 1008.3 |
| 20260505091845 | 42 | 170 | 1.0 | 2.0 | 0.00 | 0.00 | 0.00 | 50 | 1008.3 |
| 20260505091343 | 42 | 205 | 0.0 | 1.0 | 0.00 | 0.00 | 0.00 | 49 | 1008.3 |
| 20260505090841 | 42 | 190 | 1.0 | 2.0 | 0.00 | 0.00 | 0.00 | 49 | 1008.0 |
| 20260505090339 | 43 | 160 | 1.0 | 1.0 | 0.00 | 0.00 | 0.00 | 49 | 1008.3 |
| 20260505085836 | 43 | 177 | 1.0 | 2.0 | 0.00 | 0.00 | 0.00 | 49 | 1008.3 |
| 20260505085334 | 43 | 177 | 2.0 | 2.0 | 0.00 | 0.00 | 0.00 | 48 | 1008.3 |
| 20260505084831 | 43 | 191 | 0.0 | 1.0 | 0.00 | 0.00 | 0.00 | 49 | 1008.0 |
| 20260505084330 | 43 | 184 | 1.0 | 2.0 | 0.00 | 0.00 | 0.00 | 48 | 1008.0 |
| 20260505083826 | 43 | 183 | 2.0 | 2.0 | 0.00 | 0.00 | 0.00 | 48 | 1008.0 |
| 20260505083324 | 43 | 194 | 1.0 | 1.0 | 0.00 | 0.00 | 0.00 | 49 | 1007.7 |
| 20260505082820 | 43 | 166 | 2.0 | 2.0 | 0.00 | 0.00 | 0.00 | 48 | 1007.7 |
| 20260505082317 | 43 | 179 | 1.0 | 2.0 | 0.00 | 0.00 | 0.00 | 48 | 1007.7 |
| 20260505081813 | 43 | 196 | 1.0 | 1.0 | 0.00 | 0.00 | 0.00 | 48 | 1007.3 |
| 20260505081310 | 43 | 178 | 2.0 | 2.0 | 0.00 | 0.00 | 0.00 | 47 | 1007.3 |
| 20260505080807 | 43 | 186 | 2.0 | 2.0 | 0.00 | 0.00 | 0.00 | 48 | 1007.3 |
| 20260505080303 | 43 | 187 | 0.0 | 0.0 | 0.00 | 0.00 | 0.00 | 48 | 1007.3 |
| 20260505075758 | 43 | 190 | 0.0 | 0.0 | 0.00 | 0.00 | 0.00 | 48 | 1007.3 |
| 20260505075256 | 44 | 197 | 0.0 | 0.0 | 0.00 | 0.00 | 0.00 | 47 | 1007.3 |
| 20260505074753 | 44 | 190 | 1.0 | 1.0 | 0.00 | 0.00 | 0.00 | 47 | 1007.0 |
| 20260505074250 | 44 | 190 | 1.0 | 1.0 | 0.00 | 0.00 | 0.00 | 48 | 1007.3 |
| 20260505073747 | 44 | 187 | 0.0 | 0.0 | 0.00 | 0.00 | 0.00 | 47 | 1007.0 |
| 20260505073245 | 44 | 183 | 1.0 | 1.0 | 0.00 | 0.00 | 0.00 | 46 | 1007.0 |
| 20260505072742 | 44 | 185 | 1.0 | 1.0 | 0.00 | 0.00 | 0.00 | 46 | 1007.0 |
| 20260505072238 | 45 | 191 | 1.0 | 1.0 | 0.00 | 0.00 | 0.00 | 46 | 1007.0 |
| 20260505071733 | 45 | 187 | 1.0 | 1.0 | 0.00 | 0.00 | 0.00 | 45 | 1007.0 |
| 20260505071231 | 45 | 186 | 1.0 | 2.0 | 0.00 | 0.00 | 0.00 | 46 | 1007.0 |
| 20260505070728 | 45 | 186 | 1.0 | 1.0 | 0.00 | 0.00 | 0.00 | 44 | 1007.0 |
| 20260505070224 | 45 | 177 | 1.0 | 2.0 | 0.00 | 0.00 | 0.00 | 44 | 1007.0 |
| 20260505065720 | 45 | 195 | 1.0 | 1.0 | 0.00 | 0.00 | 0.00 | 44 | 1007.0 |
| 20260505065217 | 45 | 199 | 2.0 | 2.0 | 0.00 | 0.00 | 0.00 | 44 | 1007.0 |
| 20260505064714 | 45 | 175 | 1.0 | 1.0 | 0.00 | 0.00 | 0.00 | 43 | 1007.0 |
| 20260505064212 | 45 | 180 | 1.0 | 1.0 | 0.00 | 0.00 | 0.00 | 43 | 1006.6 |
| 20260505063709 | 46 | 254 | 2.0 | 2.0 | 0.00 | 0.00 | 0.00 | 43 | 1006.6 |
| 20260505063205 | 46 | 184 | 1.0 | 1.0 | 0.00 | 0.00 | 0.00 | 43 | 1007.0 |
| 20260505062701 | 46 | 178 | 1.0 | 1.0 | 0.00 | 0.00 | 0.00 | 42 | 1007.3 |
| 20260505062200 | 46 | 184 | 2.0 | 2.0 | 0.00 | 0.00 | 0.00 | 43 | 1007.0 |
| 20260505061656 | 46 | 185 | 1.0 | 2.0 | 0.00 | 0.00 | 0.00 | 42 | 1007.0 |
| 20260505061154 | 46 | 183 | 1.0 | 1.0 | 0.00 | 0.00 | 0.00 | 41 | 1006.6 |
| 20260505060651 | 46 | 172 | 2.0 | 3.0 | 0.00 | 0.00 | 0.00 | 41 | 1007.3 |
| 20260505060148 | 46 | 160 | 1.0 | 1.0 | 0.00 | 0.00 | 0.00 | 41 | 1007.0 |
| 20260505055643 | 47 | 178 | 1.0 | 1.0 | 0.00 | 0.00 | 0.00 | 41 | 1007.0 |
| 20260505055140 | 47 | 179 | 2.0 | 2.0 | 0.00 | 0.00 | 0.00 | 41 | 1007.0 |
| 20260505054638 | 47 | 198 | 1.0 | 1.0 | 0.00 | 0.00 | 0.00 | 40 | 1006.6 |
| 20260505054136 | 47 | 155 | 2.0 | 3.0 | 0.00 | 0.00 | 0.00 | 40 | 1007.0 |
| 20260505053633 | 47 | 195 | 6.0 | 8.0 | 0.00 | 0.00 | 0.00 | 40 | 1007.0 |
| 20260505053129 | 47 | 174 | 3.0 | 3.0 | 0.00 | 0.00 | 0.00 | 39 | 1007.0 |
| 20260505052626 | 48 | 77 | 2.0 | 3.0 | 0.00 | 0.00 | 0.00 | 39 | 1007.0 |
| 20260505052124 | 48 | 221 | 2.0 | 2.0 | 0.00 | 0.00 | 0.00 | 39 | 1007.0 |
| 20260505051621 | 48 | 81 | 2.0 | 2.0 | 0.00 | 0.00 | 0.00 | 39 | 1006.6 |
| 20260505051119 | 48 | 192 | 3.0 | 6.0 | 0.00 | 0.00 | 0.00 | 40 | 1006.6 |
| 20260505050616 | 48 | 211 | 2.0 | 2.0 | 0.00 | 0.00 | 0.00 | 40 | 1006.6 |
| 20260505050114 | 49 | 140 | 3.0 | 4.0 | 0.00 | 0.00 | 0.00 | 40 | 1006.6 |
| 20260505041544 | 51 | 220 | 4.0 | 4.0 | 0.00 | 0.00 | 0.00 | 37 | 1006.0 |
| 20260505041041 | 51 | 101 | 2.0 | 2.0 | 0.00 | 0.00 | 0.00 | 37 | 1006.0 |
| 20260505040538 | 51 | 222 | 5.0 | 7.0 | 0.00 | 0.00 | 0.00 | 36 | 1006.0 |
| 20260505040036 | 51 | 177 | 4.0 | 6.0 | 0.00 | 0.00 | 0.00 | 37 | 1005.6 |
| 20260505035531 | 51 | 296 | 4.0 | 6.0 | 0.00 | 0.00 | 0.00 | 36 | 1005.6 |
| 20260505035028 | 51 | 258 | 4.0 | 6.0 | 0.00 | 0.00 | 0.00 | 37 | 1005.6 |
| 20260505034525 | 51 | 182 | 3.0 | 3.0 | 0.00 | 0.00 | 0.00 | 36 | 1005.6 |
| 20260505034022 | 51 | 158 | 3.0 | 4.0 | 0.00 | 0.00 | 0.00 | 36 | 1005.3 |
| 20260505033519 | 52 | 185 | 3.0 | 4.0 | 0.00 | 0.00 | 0.00 | 37 | 1005.3 |
| 20260505033017 | 52 | 179 | 5.0 | 9.0 | 0.00 | 0.00 | 0.00 | 37 | 1005.3 |
| 20260505032514 | 52 | 240 | 2.0 | 2.0 | 0.00 | 0.00 | 0.00 | 37 | 1004.8 |
| 20260505032010 | 52 | 198 | 2.0 | 2.0 | 0.00 | 0.00 | 0.00 | 37 | 1004.8 |
| 20260505031508 | 52 | 200 | 3.0 | 4.0 | 0.00 | 0.00 | 0.00 | 36 | 1004.8 |
| 20260505031004 | 52 | 204 | 2.0 | 2.0 | 0.00 | 0.00 | 0.00 | 36 | 1004.8 |
| 20260505030501 | 53 | 237 | 4.0 | 6.0 | 0.00 | 0.00 | 0.00 | 35 | 1004.8 |
| 20260505025955 | 53 | 182 | 2.0 | 4.0 | 0.00 | 0.00 | 0.00 | 36 | 1004.8 |
| 20260505025453 | 53 | 169 | 2.0 | 3.0 | 0.00 | 0.00 | 0.00 | 36 | 1004.5 |
| 20260505024952 | 53 | 171 | 2.0 | 2.0 | 0.00 | 0.00 | 0.00 | 36 | 1004.5 |
| 20260505024449 | 54 | 174 | 3.0 | 3.0 | 0.00 | 0.00 | 0.00 | 36 | 1004.2 |
| 20260505023946 | 54 | 337 | 4.0 | 6.0 | 0.00 | 0.00 | 0.00 | 36 | 1004.2 |
| 20260505023443 | 54 | 248 | 3.0 | 3.0 | 0.00 | 0.00 | 0.00 | 36 | 1004.2 |
| 20260505022940 | 55 | 197 | 4.0 | 6.0 | 0.00 | 0.00 | 0.00 | 35 | 1003.8 |
| 20260505022438 | 55 | 160 | 5.0 | 7.0 | 0.00 | 0.00 | 0.00 | 35 | 1003.5 |
| 20260505021935 | 55 | 284 | 3.0 | 4.0 | 0.00 | 0.00 | 0.00 | 35 | 1003.5 |
| 20260505021431 | 55 | 244 | 4.0 | 6.0 | 0.00 | 0.00 | 0.00 | 34 | 1003.5 |
| 20260505020927 | 56 | 171 | 5.0 | 7.0 | 0.00 | 0.00 | 0.00 | 35 | 1003.2 |
| 20260505020422 | 56 | 255 | 3.0 | 4.0 | 0.00 | 0.00 | 0.00 | 35 | 1003.2 |
| 20260505015919 | 56 | 169 | 3.0 | 9.0 | 0.00 | 0.00 | 0.00 | 34 | 1003.2 |
| 20260505015417 | 56 | 237 | 3.0 | 4.0 | 0.00 | 0.00 | 0.00 | 34 | 1003.2 |
| 20260505014914 | 57 | 190 | 3.0 | 4.0 | 0.00 | 0.00 | 0.00 | 34 | 1002.5 |
| 20260505014411 | 57 | 262 | 5.0 | 8.0 | 0.00 | 0.00 | 0.00 | 33 | 1002.5 |
| 20260505013908 | 57 | 201 | 6.0 | 7.0 | 0.00 | 0.00 | 0.00 | 34 | 1002.5 |
| 20260505013404 | 57 | 178 | 3.0 | 4.0 | 0.00 | 0.00 | 0.00 | 34 | 1002.1 |
| 20260505012903 | 58 | 242 | 7.0 | 9.0 | 0.00 | 0.00 | 0.00 | 33 | 1002.1 |
| 20260505012400 | 58 | 196 | 3.0 | 6.0 | 0.00 | 0.00 | 0.00 | 33 | 1002.1 |
| 20260505011856 | 58 | 16 | 3.0 | 3.0 | 0.00 | 0.00 | 0.00 | 33 | 1001.8 |
| 20260505011353 | 58 | 242 | 7.0 | 10.0 | 0.00 | 0.00 | 0.00 | 32 | 1001.8 |
| 20260505010849 | 59 | 180 | 4.0 | 7.0 | 0.00 | 0.00 | 0.00 | 31 | 1001.5 |
| 20260505010345 | 59 | 158 | 5.0 | 6.0 | 0.00 | 0.00 | 0.00 | 32 | 1001.5 |
| 20260505005842 | 59 | 232 | 5.0 | 6.0 | 0.00 | 0.00 | 0.00 | 31 | 1001.5 |
| 20260505005338 | 60 | 184 | 7.0 | 11.0 | 0.00 | 0.00 | 0.00 | 30 | 1001.1 |
| 20260505004836 | 60 | 159 | 4.0 | 4.0 | 0.00 | 0.00 | 0.00 | 32 | 1001.1 |
| 20260505004332 | 60 | 160 | 4.0 | 4.0 | 0.00 | 0.00 | 0.00 | 31 | 1001.1 |
| 20260505003830 | 60 | 230 | 2.0 | 3.0 | 0.00 | 0.00 | 0.00 | 30 | 1001.1 |
| 20260505003327 | 61 | 196 | 7.0 | 10.0 | 0.00 | 0.00 | 0.00 | 29 | 1001.1 |
| 20260505002822 | 61 | 203 | 4.0 | 6.0 | 0.00 | 0.00 | 0.00 | 28 | 1001.1 |
| 20260505002320 | 61 | 163 | 6.0 | 9.0 | 0.00 | 0.00 | 0.00 | 28 | 1001.1 |
| 20260505001818 | 61 | 249 | 2.0 | 4.0 | 0.00 | 0.00 | 0.00 | 28 | 1001.1 |
| 20260505001315 | 61 | 225 | 9.0 | 13.0 | 0.00 | 0.00 | 0.00 | 28 | 1000.7 |
| 20260505000812 | 62 | 116 | 6.0 | 7.0 | 0.00 | 0.00 | 0.00 | 27 | 1000.7 |
| 20260505000310 | 62 | 144 | 5.0 | 7.0 | 0.00 | 0.00 | 0.00 | 28 | 1000.7 |
| 20260504235806 | 62 | 196 | 8.0 | 10.0 | 0.00 | 0.00 | 0.00 | 28 | 1000.7 |
| 20260504235304 | 62 | 185 | 4.0 | 6.0 | 0.00 | 0.00 | 0.00 | 27 | 1000.7 |
| 20260504234800 | 63 | 245 | 5.0 | 7.0 | 0.00 | 0.00 | 0.00 | 27 | 1000.3 |
| 20260504234258 | 63 | 201 | 7.0 | 10.0 | 0.00 | 0.00 | 0.00 | 26 | 1000.3 |
| 20260504233753 | 63 | 224 | 6.0 | 8.0 | 0.00 | 0.00 | 0.00 | 26 | 1000.3 |
| 20260504233249 | 64 | 214 | 5.0 | 7.0 | 0.00 | 0.00 | 0.00 | 26 | 1000.3 |
| 20260504232746 | 64 | 184 | 10.0 | 13.0 | 0.00 | 0.00 | 0.00 | 25 | 1000.3 |
| 20260504232243 | 64 | 227 | 4.0 | 6.0 | 0.00 | 0.00 | 0.00 | 26 | 1000.3 |
| 20260504231740 | 64 | 201 | 4.0 | 4.0 | 0.00 | 0.00 | 0.00 | 25 | 1000.0 |
| 20260504231237 | 64 | 189 | 4.0 | 6.0 | 0.00 | 0.00 | 0.00 | 24 | 1000.0 |
| 20260504230732 | 64 | 164 | 4.0 | 6.0 | 0.00 | 0.00 | 0.00 | 25 | 1000.3 |
| 20260504230231 | 65 | 245 | 6.0 | 8.0 | 0.00 | 0.00 | 0.00 | 23 | 1000.0 |
| 20260504225730 | 65 | 218 | 3.0 | 4.0 | 0.00 | 0.00 | 0.00 | 23 | 1000.3 |
| 20260504225226 | 65 | 173 | 8.0 | 11.0 | 0.00 | 0.00 | 0.00 | 23 | 1000.0 |
| 20260504224723 | 66 | 184 | 4.0 | 4.0 | 0.00 | 0.00 | 0.00 | 24 | 999.7 |
| 20260504224220 | 66 | 185 | 6.0 | 8.0 | 0.00 | 0.00 | 0.00 | 22 | 999.7 |
| 20260504223716 | 66 | 131 | 7.0 | 9.0 | 0.00 | 0.00 | 0.00 | 21 | 999.3 |
| 20260504223212 | 66 | 215 | 7.0 | 9.0 | 0.00 | 0.00 | 0.00 | 21 | 999.3 |
| 20260504222709 | 66 | 190 | 3.0 | 3.0 | 0.00 | 0.00 | 0.00 | 21 | 999.3 |
| 20260504222206 | 66 | 181 | 1.0 | 3.0 | 0.00 | 0.00 | 0.00 | 21 | 999.0 |
| 20260504221703 | 67 | 259 | 6.0 | 9.0 | 0.00 | 0.00 | 0.00 | 21 | 999.0 |
| 20260504221200 | 66 | 167 | 5.0 | 7.0 | 0.00 | 0.00 | 0.00 | 21 | 999.0 |
| 20260504220656 | 66 | 256 | 3.0 | 4.0 | 0.00 | 0.00 | 0.00 | 22 | 999.0 |
| 20260504220155 | 67 | 167 | 4.0 | 6.0 | 0.00 | 0.00 | 0.00 | 21 | 999.0 |
| 20260504215650 | 67 | 164 | 6.0 | 7.0 | 0.00 | 0.00 | 0.00 | 21 | 999.0 |
| 20260504215148 | 67 | 227 | 6.0 | 10.0 | 0.00 | 0.00 | 0.00 | 20 | 999.0 |
| 20260504214643 | 67 | 224 | 4.0 | 4.0 | 0.00 | 0.00 | 0.00 | 20 | 999.0 |
| 20260504214140 | 67 | 184 | 6.0 | 7.0 | 0.00 | 0.00 | 0.00 | 21 | 999.0 |
| 20260504213637 | 67 | 183 | 5.0 | 7.0 | 0.00 | 0.00 | 0.00 | 22 | 998.6 |
| 20260504213134 | 67 | 200 | 10.0 | 11.0 | 0.00 | 0.00 | 0.00 | 22 | 999.0 |
| 20260504212630 | 67 | 138 | 4.0 | 6.0 | 0.00 | 0.00 | 0.00 | 23 | 998.6 |
| 20260504212127 | 67 | 222 | 5.0 | 6.0 | 0.00 | 0.00 | 0.00 | 23 | 998.6 |
| 20260504211625 | 67 | 170 | 8.0 | 11.0 | 0.00 | 0.00 | 0.00 | 23 | 998.6 |
| 20260504211120 | 67 | 156 | 6.0 | 8.0 | 0.00 | 0.00 | 0.00 | 22 | 998.6 |
| 20260504210618 | 67 | 172 | 7.0 | 9.0 | 0.00 | 0.00 | 0.00 | 22 | 998.6 |
| 20260504210109 | 68 | 198 | 5.0 | 7.0 | 0.00 | 0.00 | 0.00 | 22 | 998.6 |
| 20260504205606 | 68 | 156 | 9.0 | 11.0 | 0.00 | 0.00 | 0.00 | 22 | 998.6 |
| 20260504205104 | 68 | 176 | 4.0 | 4.0 | 0.00 | 0.00 | 0.00 | 23 | 998.6 |
| 20260504204602 | 68 | 195 | 6.0 | 11.0 | 0.00 | 0.00 | 0.00 | 23 | 999.0 |
| 20260504204101 | 69 | 186 | 6.0 | 8.0 | 0.00 | 0.00 | 0.00 | 23 | 998.6 |
| 20260504203559 | 69 | 168 | 6.0 | 7.0 | 0.00 | 0.00 | 0.00 | 22 | 998.6 |
| 20260504203056 | 69 | 147 | 6.0 | 9.0 | 0.00 | 0.00 | 0.00 | 22 | 998.6 |
| 20260504202551 | 70 | 170 | 8.0 | 13.0 | 0.00 | 0.00 | 0.00 | 21 | 998.6 |
| 20260504202048 | 70 | 188 | 3.0 | 4.0 | 0.00 | 0.00 | 0.00 | 21 | 998.6 |
| 20260504201545 | 71 | 270 | 8.0 | 10.0 | 0.00 | 0.00 | 0.00 | 19 | 998.3 |
| 20260504201043 | 72 | 199 | 10.0 | 10.0 | 0.00 | 0.00 | 0.00 | 19 | 998.3 |
| 20260504200539 | 72 | 180 | 8.0 | 10.0 | 0.00 | 0.00 | 0.00 | 18 | 998.3 |
| 20260504200036 | 73 | 196 | 7.0 | 11.0 | 0.00 | 0.00 | 0.00 | 18 | 998.0 |
| 20260504195532 | 73 | 215 | 6.0 | 9.0 | 0.00 | 0.00 | 0.00 | 19 | 998.0 |
| 20260504195029 | 73 | 174 | 6.0 | 8.0 | 0.00 | 0.00 | 0.00 | 20 | 998.0 |
| 20260504194525 | 74 | 196 | 4.0 | 7.0 | 0.00 | 0.00 | 0.00 | 22 | 997.6 |
| 20260504194021 | 74 | 180 | 7.0 | 9.0 | 0.00 | 0.00 | 0.00 | 24 | 997.6 |
| 20260504193518 | 74 | 208 | 6.0 | 8.0 | 0.00 | 0.00 | 0.00 | 22 | 997.6 |
| 20260504193017 | 74 | 224 | 6.0 | 8.0 | 0.00 | 0.00 | 0.00 | 23 | 997.6 |
| 20260504192514 | 74 | 182 | 6.0 | 7.0 | 0.00 | 0.00 | 0.00 | 23 | 997.3 |
| 20260504192013 | 74 | 165 | 4.0 | 4.0 | 0.00 | 0.00 | 0.00 | 21 | 997.6 |